Palacios, TX

8:26 AM CST on December 03, 2016 (GMT -0600)
Palacios Municipal

Weather History for KPSX - December, 2013

Change the Weather History Date:

Sunday, December 1, 2013

  Actual Average Record
Temperature  
Mean Temperature 62 °F -  
Max Temperature 73 °F 68 °F 80 °F (1945)
Min Temperature 51 °F 47 °F 29 °F (1979)
Degree Days  
Heating Degree Days 3    
Growing Degree Days 12 (Base 50)    
Moisture  
Dew Point 58 °F    
Average Humidity 86    
Maximum Humidity 97    
Minimum Humidity 61    
Precipitation  
Precipitation 0.00 in - - ()
Sea Level Pressure  
Sea Level Pressure 30.12 in    
Wind  
Wind Speed 6 mph (SE)    
Max Wind Speed 13 mph    
Max Gust Speed -    
Visibility 9 miles    
Events      
Averages and records for this station are not official NWS values.
T = Trace of Precipitation, MM = Missing Value Source: NWS Daily Summary

Daily Weather History Graph

Daily Weather History Graph

Search for Another Location

Airport or City:

Trip Planner

Search our weather history database for the weather conditions in past years. The results will help you decide how hot, cold, wet, or windy it might be!

Date:

Astronomy

Dec. 01, 2013 Rise Set
Actual Time 7:00 AM CST 5:27 PM CST
Civil Twilight 6:35 AM CST 5:53 PM CST
Nautical Twilight 6:05 AM CST 6:22 PM CST
Astronomical Twilight 5:37 AM CST 6:50 PM CST
Moon 5:26 AM CST (12/1) 4:33 PM CST (12/1)
Length of Visible Light 11h 17m
Length of Day
10h 26m
Waning Crescent, 2% of the Moon is Illuminated
Dec 1
Waning Crescent
Dec 2
New
Dec 9
First Quarter
Dec 17
Full
Dec 25
Last Quarter

Hourly Weather History & Observations

Time (CST) Temp. Dew Point Humidity Pressure Visibility Wind Dir Wind Speed Gust Speed Precip Events Conditions
12:53 AM 55.9 °F 55.0 °F 97% 30.19 in 10.0 mi ESE 5.8 mph - N/A   Clear
1:53 AM 55.0 °F 54.0 °F 96% 30.19 in 10.0 mi SE 4.6 mph - N/A   Clear
2:53 AM 53.1 °F 52.0 °F 96% 30.19 in 7.0 mi Calm Calm - N/A   Partly Cloudy
3:53 AM 51.1 °F 50.0 °F 96% 30.19 in 6.0 mi ENE 3.5 mph - N/A   Partly Cloudy
4:53 AM 54.0 °F 52.0 °F 93% 30.18 in 9.0 mi ESE 5.8 mph - N/A   Clear
5:53 AM 54.0 °F 53.1 °F 97% 30.17 in 10.0 mi ESE 6.9 mph - N/A   Clear
6:53 AM 55.9 °F 54.0 °F 93% 30.18 in 10.0 mi ESE 5.8 mph - N/A   Mostly Cloudy
7:53 AM 61.0 °F 57.9 °F 90% 30.19 in 10.0 mi ESE 6.9 mph - N/A   Mostly Cloudy
8:53 AM 64.9 °F 61.0 °F 87% 30.19 in 10.0 mi ESE 4.6 mph - N/A   Overcast
9:53 AM 68.0 °F 62.1 °F 81% 30.20 in 10.0 mi SE 8.1 mph - N/A   Overcast
10:53 AM 73.0 °F 59.0 °F 61% 30.19 in 10.0 mi South 10.4 mph - N/A   Mostly Cloudy
11:53 AM 72.0 °F 59.0 °F 64% 30.15 in 10.0 mi SSE 12.7 mph - N/A   Overcast
12:53 PM 71.1 °F 60.1 °F 68% 30.13 in 10.0 mi SSE 6.9 mph - N/A   Overcast
1:53 PM 71.1 °F 61.0 °F 70% 30.10 in 10.0 mi SE 10.4 mph - N/A   Overcast
2:53 PM 71.1 °F 62.1 °F 73% 30.07 in 10.0 mi SSE 9.2 mph - N/A   Overcast
3:53 PM 71.1 °F 62.1 °F 73% 30.06 in 10.0 mi SSE 8.1 mph - N/A   Overcast
4:53 PM 66.9 °F 61.0 °F 81% 30.04 in 10.0 mi SSE 6.9 mph - N/A   Clear
5:53 PM 64.0 °F 60.1 °F 87% 30.04 in 10.0 mi South 4.6 mph - N/A   Clear
6:53 PM 62.1 °F 59.0 °F 90% 30.03 in 10.0 mi SSE 5.8 mph - N/A   Clear
8:53 PM 61.0 °F 59.0 °F 93% 30.02 in 9.0 mi South 4.6 mph - N/A   Clear
9:53 PM 61.0 °F 59.0 °F 93% 30.01 in 9.0 mi North - - N/A   Clear
10:53 PM 61.0 °F 60.1 °F 97% 30.00 in 9.0 mi North - - N/A   Clear
11:53 PM 61.0 °F 59.0 °F 93% 29.97 in 8.0 mi SSW 5.8 mph - N/A   Clear